LOT225 EPWA-LOWW

Flight info

Callsign LOT225
Flight time 0h 54m
Altitude 32000
Route EVINA N744 TUSIN DCT MIKOV MIKOV8W
Aircraft B38M/M-SDE1FGHILORVWXY/HB1

Departure

Time 2026-05-05 14:40
Airport Warsaw Chopin Airport (EPWA)

Arrival

Time 2026-05-05 15:34
Airport Vienna International Airport (LOWW)
Time Latitude Longitude Altitude Speed Heading
2026-05-05 14:08 52.17047 20.97101 341 ft 0 kts 70°
2026-05-05 14:09 52.16999 20.97139 338 ft 0 kts 70°
2026-05-05 14:32 52.16995 20.97119 336 ft 4 kts 70°
2026-05-05 14:32 52.16986 20.97079 336 ft 3 kts 70°
2026-05-05 14:32 52.16980 20.97052 337 ft 3 kts 62°
2026-05-05 14:32 52.16973 20.97017 336 ft 4 kts 104°
2026-05-05 14:33 52.16988 20.96989 336 ft 4 kts 150°
2026-05-05 14:33 52.17010 20.96969 337 ft 4 kts 152°
2026-05-05 14:33 52.17017 20.96963 337 ft 1 kts 152°
2026-05-05 14:36 52.17014 20.96966 336 ft 2 kts 152°
2026-05-05 14:36 52.16956 20.97016 338 ft 17 kts 152°
2026-05-05 14:36 52.16827 20.97128 339 ft 23 kts 152°
2026-05-05 14:37 52.16654 20.97279 338 ft 21 kts 151°
2026-05-05 14:37 52.16586 20.97344 337 ft 14 kts 137°
2026-05-05 14:37 52.16541 20.97490 340 ft 15 kts 114°
2026-05-05 14:37 52.16494 20.97657 338 ft 17 kts 115°
2026-05-05 14:38 52.16442 20.97809 349 ft 6 kts 145°
2026-05-05 14:38 52.16419 20.97808 345 ft 4 kts 196°
2026-05-05 14:38 52.16367 20.97768 341 ft 12 kts 206°
2026-05-05 14:38 52.16304 20.97718 339 ft 3 kts 211°
2026-05-05 14:39 52.16301 20.97694 336 ft 3 kts 284°
2026-05-05 14:39 52.16314 20.97644 340 ft 6 kts 295°
2026-05-05 14:39 52.16415 20.97277 339 ft 77 kts 294°
2026-05-05 14:39 52.16752 20.96073 347 ft 153 kts 293°
2026-05-05 14:40 52.17260 20.94249 729 ft 188 kts 289°
2026-05-05 14:40 52.17794 20.92304 1485 ft 188 kts 289°
2026-05-05 14:40 52.18262 20.90389 2405 ft 186 kts 281°
2026-05-05 14:40 52.18378 20.88189 2895 ft 207 kts 259°
2026-05-05 14:41 52.18016 20.85825 3494 ft 227 kts 252°
2026-05-05 14:41 52.17598 20.83284 4347 ft 233 kts 252°
2026-05-05 14:41 52.17178 20.80643 5132 ft 249 kts 253°
2026-05-05 14:41 52.16741 20.77832 5912 ft 261 kts 253°
2026-05-05 14:42 52.16298 20.74959 6915 ft 264 kts 253°
2026-05-05 14:42 52.15751 20.72103 7892 ft 264 kts 240°
2026-05-05 14:42 52.14576 20.69881 9016 ft 258 kts 219°
2026-05-05 14:42 52.13172 20.68021 9993 ft 263 kts 220°
2026-05-05 14:43 52.11723 20.66111 10606 ft 277 kts 220°
2026-05-05 14:43 52.10162 20.64087 11027 ft 297 kts 219°
2026-05-05 14:43 52.08503 20.61960 11549 ft 310 kts 219°
2026-05-05 14:43 52.06791 20.59783 12297 ft 315 kts 219°
2026-05-05 14:44 52.05055 20.57584 13149 ft 318 kts 219°
2026-05-05 14:44 52.03298 20.55366 13876 ft 322 kts 219°
2026-05-05 14:44 52.01521 20.53126 14527 ft 327 kts 219°
2026-05-05 14:44 51.99710 20.50848 15185 ft 331 kts 219°
2026-05-05 14:45 51.97877 20.48543 15820 ft 335 kts 219°
2026-05-05 14:45 51.96008 20.46230 16425 ft 341 kts 216°
2026-05-05 14:45 51.93827 20.44667 17050 ft 349 kts 196°
2026-05-05 14:45 51.91401 20.44103 17607 ft 356 kts 190°
2026-05-05 14:46 51.88914 20.43656 18162 ft 361 kts 189°
2026-05-05 14:46 51.86406 20.43234 18674 ft 364 kts 189°
2026-05-05 14:46 51.83890 20.42831 19188 ft 367 kts 188°
2026-05-05 14:46 51.81332 20.42434 19698 ft 370 kts 188°
2026-05-05 14:47 51.78753 20.42038 20209 ft 373 kts 188°
2026-05-05 14:47 51.76193 20.41648 20700 ft 376 kts 188°
2026-05-05 14:47 51.73580 20.41250 21202 ft 379 kts 188°
2026-05-05 14:47 51.70910 20.40844 21717 ft 382 kts 188°
2026-05-05 14:48 51.68255 20.40442 22231 ft 385 kts 188°
2026-05-05 14:48 51.65574 20.40036 22742 ft 388 kts 188°
2026-05-05 14:48 51.62878 20.39627 23246 ft 391 kts 188°
2026-05-05 14:48 51.60156 20.39216 23713 ft 394 kts 188°
2026-05-05 14:49 51.57423 20.38803 24171 ft 397 kts 188°
2026-05-05 14:49 51.54664 20.38386 24633 ft 399 kts 188°
2026-05-05 14:49 51.51891 20.37968 25103 ft 401 kts 188°
2026-05-05 14:49 51.49107 20.37550 25550 ft 404 kts 188°
2026-05-05 14:50 51.46335 20.37133 26000 ft 406 kts 188°
2026-05-05 14:50 51.43513 20.36709 26408 ft 410 kts 188°
2026-05-05 14:50 51.40676 20.36182 26816 ft 410 kts 195°
2026-05-05 14:50 51.38027 20.34575 27259 ft 407 kts 212°
2026-05-05 14:51 51.35685 20.32013 27644 ft 409 kts 217°
2026-05-05 14:51 51.33382 20.29353 28030 ft 412 kts 217°
2026-05-05 14:51 51.31060 20.26618 28469 ft 414 kts 218°
2026-05-05 14:51 51.28749 20.23867 28860 ft 416 kts 218°
2026-05-05 14:52 51.26420 20.21076 29245 ft 419 kts 218°
2026-05-05 14:52 51.24088 20.18277 29631 ft 421 kts 218°
2026-05-05 14:52 51.21742 20.15462 29951 ft 424 kts 218°
2026-05-05 14:52 51.19374 20.12623 30291 ft 426 kts 218°
2026-05-05 14:53 51.16999 20.09778 30619 ft 428 kts 218°
2026-05-05 14:53 51.14617 20.06930 30939 ft 430 kts 218°
2026-05-05 14:53 51.12220 20.04067 31255 ft 432 kts 218°
2026-05-05 14:53 51.09807 20.01193 31581 ft 434 kts 218°
2026-05-05 14:54 51.07413 19.98350 31995 ft 433 kts 218°
2026-05-05 14:54 51.05005 19.95492 32430 ft 432 kts 218°
2026-05-05 14:54 51.02596 19.92637 32833 ft 432 kts 218°
2026-05-05 14:54 51.00190 19.89788 33226 ft 431 kts 218°
2026-05-05 14:55 50.97786 19.86943 33634 ft 431 kts 218°
2026-05-05 14:55 50.95381 19.84102 33814 ft 432 kts 218°
2026-05-05 14:55 50.90600 19.78463 33802 ft 428 kts 218°
2026-05-05 14:56 50.85813 19.72832 33787 ft 428 kts 218°
2026-05-05 14:56 50.81025 19.67216 33791 ft 429 kts 218°
2026-05-05 14:57 50.76222 19.61595 33794 ft 430 kts 218°
2026-05-05 14:57 50.71424 19.55996 33798 ft 430 kts 218°
2026-05-05 14:58 50.66618 19.50402 33800 ft 430 kts 218°
2026-05-05 14:58 50.61801 19.44810 33800 ft 430 kts 218°
2026-05-05 14:59 50.56970 19.39216 33803 ft 432 kts 218°
2026-05-05 14:59 50.52127 19.33622 33807 ft 432 kts 218°
2026-05-05 15:00 50.48104 19.28987 33806 ft 432 kts 218°
2026-05-05 15:00 50.42470 19.22513 33798 ft 432 kts 218°
2026-05-05 15:01 50.37621 19.16956 33806 ft 432 kts 218°
2026-05-05 15:01 50.32773 19.11414 33800 ft 432 kts 218°
2026-05-05 15:02 50.27911 19.05871 33806 ft 432 kts 218°
2026-05-05 15:02 50.23048 19.00342 33797 ft 432 kts 217°
2026-05-05 15:03 50.18186 18.94828 33809 ft 432 kts 217°
2026-05-05 15:03 50.13337 18.89342 33811 ft 432 kts 217°
2026-05-05 15:04 50.08469 18.83849 33816 ft 432 kts 217°
2026-05-05 15:04 50.03605 18.78375 33807 ft 431 kts 217°
2026-05-05 15:05 49.96292 18.70169 33816 ft 432 kts 217°
2026-05-05 15:06 49.91429 18.64728 33808 ft 433 kts 217°
2026-05-05 15:06 49.86547 18.59277 33809 ft 431 kts 217°
2026-05-05 15:06 49.84277 18.56264 33800 ft 429 kts 230°
2026-05-05 15:07 49.82402 18.52678 33813 ft 430 kts 231°
2026-05-05 15:07 49.78608 18.45584 33810 ft 427 kts 231°
2026-05-05 15:08 49.74831 18.38442 33809 ft 429 kts 231°
2026-05-05 15:08 49.71066 18.31325 33803 ft 429 kts 231°
2026-05-05 15:09 49.67273 18.24175 33807 ft 429 kts 232°
2026-05-05 15:09 49.63506 18.17094 33806 ft 431 kts 232°
2026-05-05 15:10 49.59722 18.09999 33798 ft 428 kts 231°
2026-05-05 15:10 49.55922 18.02891 33812 ft 430 kts 231°
2026-05-05 15:11 49.52122 17.95807 33808 ft 429 kts 231°
2026-05-05 15:11 49.48308 17.88713 33810 ft 429 kts 231°
2026-05-05 15:11 49.46433 17.85234 33805 ft 414 kts 231°
2026-05-05 15:12 49.44622 17.81877 33505 ft 405 kts 231°
2026-05-05 15:12 49.42833 17.78564 32930 ft 405 kts 231°
2026-05-05 15:12 49.41034 17.75237 32375 ft 407 kts 231°
2026-05-05 15:12 49.39213 17.71875 31851 ft 409 kts 231°
2026-05-05 15:13 49.37401 17.68534 31348 ft 407 kts 230°
2026-05-05 15:13 49.35597 17.65210 30849 ft 404 kts 231°
2026-05-05 15:13 49.33799 17.61903 30331 ft 402 kts 230°
2026-05-05 15:13 49.32013 17.58622 29819 ft 400 kts 230°
2026-05-05 15:14 49.30233 17.55353 29232 ft 398 kts 230°
2026-05-05 15:14 49.28469 17.52122 28751 ft 394 kts 231°
2026-05-05 15:14 49.26723 17.48924 28278 ft 390 kts 231°
2026-05-05 15:14 49.24986 17.45750 27785 ft 387 kts 231°
2026-05-05 15:15 49.23266 17.42609 27320 ft 384 kts 231°
2026-05-05 15:15 49.21554 17.39486 26880 ft 381 kts 231°
2026-05-05 15:15 49.19857 17.36394 26425 ft 378 kts 231°
2026-05-05 15:15 49.18170 17.33323 25984 ft 376 kts 231°
2026-05-05 15:16 49.16495 17.30278 25543 ft 373 kts 231°
2026-05-05 15:16 49.14828 17.27253 25114 ft 371 kts 231°
2026-05-05 15:16 49.13175 17.24256 24691 ft 369 kts 231°
2026-05-05 15:16 49.11531 17.21277 24265 ft 367 kts 230°
2026-05-05 15:17 49.09892 17.18311 23851 ft 365 kts 231°
2026-05-05 15:17 49.08263 17.15367 23450 ft 362 kts 231°
2026-05-05 15:17 49.06640 17.12436 22997 ft 360 kts 230°
2026-05-05 15:17 49.05027 17.09530 22550 ft 358 kts 230°
2026-05-05 15:18 49.03426 17.06644 22159 ft 354 kts 230°
2026-05-05 15:18 49.01844 17.03798 21788 ft 350 kts 230°
2026-05-05 15:18 49.00276 17.00981 21403 ft 347 kts 230°
2026-05-05 15:18 48.98722 16.98189 21023 ft 344 kts 231°
2026-05-05 15:19 48.97179 16.95421 20662 ft 341 kts 230°
2026-05-05 15:19 48.95661 16.92701 20310 ft 338 kts 230°
2026-05-05 15:19 48.94145 16.89988 19926 ft 335 kts 230°
2026-05-05 15:19 48.92635 16.87287 19521 ft 337 kts 230°
2026-05-05 15:20 48.91101 16.84547 19093 ft 341 kts 230°
2026-05-05 15:20 48.89562 16.81800 18682 ft 341 kts 230°
2026-05-05 15:20 48.88042 16.79090 18287 ft 341 kts 230°
2026-05-05 15:20 48.86491 16.76326 17861 ft 340 kts 230°
2026-05-05 15:21 48.84957 16.73596 17410 ft 340 kts 230°
2026-05-05 15:21 48.83446 16.70906 16967 ft 338 kts 230°
2026-05-05 15:21 48.81902 16.68162 16524 ft 337 kts 230°
2026-05-05 15:21 48.80319 16.65552 16066 ft 336 kts 220°
2026-05-05 15:22 48.78304 16.63820 15655 ft 336 kts 200°
2026-05-05 15:22 48.75998 16.63296 15225 ft 338 kts 180°
2026-05-05 15:22 48.73667 16.63818 14797 ft 339 kts 171°
2026-05-05 15:22 48.71383 16.64508 14367 ft 339 kts 170°
2026-05-05 15:23 48.69070 16.65234 13957 ft 339 kts 171°
2026-05-05 15:23 48.66769 16.65968 13537 ft 338 kts 171°
2026-05-05 15:23 48.64493 16.66707 12960 ft 330 kts 170°
2026-05-05 15:23 48.62278 16.67431 12413 ft 322 kts 170°
2026-05-05 15:24 48.60114 16.68140 11819 ft 316 kts 171°
2026-05-05 15:24 48.58685 16.68468 11439 ft 308 kts 182°
2026-05-05 15:24 48.56615 16.67814 10871 ft 297 kts 207°
2026-05-05 15:24 48.54907 16.66149 10360 ft 290 kts 215°
2026-05-05 15:25 48.53267 16.64431 9824 ft 286 kts 215°
2026-05-05 15:25 48.51651 16.62722 9251 ft 283 kts 215°
2026-05-05 15:25 48.50049 16.61015 8675 ft 280 kts 214°
2026-05-05 15:25 48.48492 16.59349 8130 ft 276 kts 215°
2026-05-05 15:26 48.46915 16.57659 7564 ft 272 kts 214°
2026-05-05 15:26 48.45405 16.56038 7039 ft 269 kts 214°
2026-05-05 15:26 48.43893 16.54417 6514 ft 265 kts 215°
2026-05-05 15:26 48.42405 16.52823 5983 ft 262 kts 214°
2026-05-05 15:27 48.40922 16.51234 5439 ft 260 kts 214°
2026-05-05 15:27 48.39461 16.49671 5079 ft 252 kts 213°
2026-05-05 15:27 48.38090 16.48231 5032 ft 228 kts 207°
2026-05-05 15:27 48.36679 16.47641 5055 ft 200 kts 181°
2026-05-05 15:28 48.35331 16.47941 5042 ft 192 kts 169°
2026-05-05 15:28 48.34052 16.48436 4874 ft 193 kts 168°
2026-05-05 15:28 48.32768 16.48972 4651 ft 190 kts 168°
2026-05-05 15:28 48.31503 16.49510 4421 ft 189 kts 168°
2026-05-05 15:29 48.30242 16.50046 4187 ft 187 kts 168°
2026-05-05 15:29 48.28997 16.50578 3952 ft 180 kts 168°
2026-05-05 15:29 48.27825 16.51078 3724 ft 176 kts 168°
2026-05-05 15:29 48.26649 16.51579 3491 ft 175 kts 168°
2026-05-05 15:30 48.25479 16.52078 3269 ft 175 kts 168°
2026-05-05 15:30 48.24292 16.52584 3045 ft 175 kts 168°
2026-05-05 15:30 48.23160 16.53067 2817 ft 165 kts 169°
2026-05-05 15:30 48.22118 16.53511 2625 ft 146 kts 169°
2026-05-05 15:31 48.21212 16.53898 2433 ft 125 kts 170°
2026-05-05 15:31 48.20397 16.54243 2280 ft 121 kts 170°
2026-05-05 15:31 48.19589 16.54587 2114 ft 121 kts 169°
2026-05-05 15:31 48.18782 16.54931 1962 ft 120 kts 169°
2026-05-05 15:32 48.17983 16.55270 1805 ft 119 kts 168°
2026-05-05 15:32 48.17185 16.55609 1656 ft 119 kts 167°
2026-05-05 15:32 48.16385 16.55946 1486 ft 121 kts 166°
2026-05-05 15:32 48.15560 16.56295 1341 ft 126 kts 166°
2026-05-05 15:33 48.14725 16.56647 1189 ft 123 kts 162°
2026-05-05 15:33 48.13902 16.57021 1015 ft 124 kts 165°
2026-05-05 15:33 48.13072 16.57347 870 ft 124 kts 163°
2026-05-05 15:33 48.12256 16.57698 699 ft 119 kts 165°
2026-05-05 15:34 48.11503 16.58024 618 ft 102 kts 165°
2026-05-05 15:34 48.10945 16.58254 619 ft 54 kts 163°
2026-05-05 15:34 48.10637 16.58383 615 ft 44 kts 164°
2026-05-05 15:34 48.10417 16.58471 614 ft 22 kts 172°
2026-05-05 15:35 48.10273 16.58455 614 ft 20 kts 194°
2026-05-05 15:35 48.10165 16.58414 623 ft 13 kts 194°
2026-05-05 15:35 48.10129 16.58333 611 ft 8 kts 303°
2026-05-05 15:35 48.10184 16.58298 618 ft 10 kts 343°
2026-05-05 15:36 48.10262 16.58264 615 ft 13 kts 343°
2026-05-05 15:36 48.10358 16.58222 613 ft 16 kts 345°
2026-05-05 15:36 48.10472 16.58177 618 ft 18 kts 345°
2026-05-05 15:36 48.10602 16.58121 624 ft 21 kts 344°
2026-05-05 15:37 48.10746 16.58060 619 ft 23 kts 344°
2026-05-05 15:37 48.10904 16.57993 624 ft 25 kts 344°
2026-05-05 15:37 48.11072 16.57922 624 ft 23 kts 344°
2026-05-05 15:37 48.11234 16.57853 614 ft 25 kts 344°
2026-05-05 15:38 48.11407 16.57779 612 ft 24 kts 344°
2026-05-05 15:38 48.11496 16.57712 612 ft 9 kts 295°
2026-05-05 15:38 48.11526 16.57614 614 ft 12 kts 295°
2026-05-05 15:38 48.11565 16.57494 615 ft 14 kts 296°
2026-05-05 15:39 48.11598 16.57415 617 ft 2 kts 335°
2026-05-05 15:39 48.11635 16.57411 612 ft 12 kts 358°
2026-05-05 15:39 48.11728 16.57379 622 ft 14 kts 343°
2026-05-05 15:39 48.11818 16.57321 620 ft 12 kts 306°
2026-05-05 15:40 48.11858 16.57199 613 ft 14 kts 294°
2026-05-05 15:40 48.11901 16.57066 618 ft 12 kts 296°
2026-05-05 15:40 48.11922 16.56998 622 ft 1 kts 271°
2026-05-05 15:40 48.11915 16.56983 612 ft 2 kts 221°
2026-05-05 15:41 48.11895 16.56968 618 ft 5 kts 205°
2026-05-05 15:41 48.11857 16.56940 612 ft 7 kts 206°
2026-05-05 15:41 48.11846 16.56932 619 ft 1 kts 206°